EW9842 Weather Reports


time (UTC)temp
F
wind
direction
speed
knots
gust
knots
rain 1hr
in
rain 24hr
in
rain mn
in
humidity
%
barometer
mb
20260902093034 56 299 5.2 12.2 0.00 0.00 0.00 73 1013.5
20260902091536 56 306 4.3 11.3 0.00 0.00 0.00 73 1013.6
20260902090032 56 298 7.0 13.0 0.00 0.00 0.00 73 1013.5
20260902084536 56 311 7.0 13.0 0.00 0.00 0.00 73 1013.4
20260902083036 56 308 7.0 15.6 0.00 0.00 0.00 73 1013.6
20260902081536 55 304 5.2 13.0 0.00 0.00 0.00 75 1013.7
20260902073036 56 302 6.1 15.6 0.00 0.00 0.00 76 1013.8
20260902071531 56 321 7.8 17.4 0.00 0.00 0.00 75 1013.8
20260902070108 56 315 6.1 13.0 0.00 0.00 0.00 74 1014.1
20260902064703 57 308 7.0 16.5 0.00 0.00 0.00 73 1014.3
20260902063035 58 303 7.0 13.0 0.00 0.00 0.00 72 1014.6
20260902060036 58 294 7.8 17.4 0.00 0.00 0.00 70 1014.6
20260902054535 58 294 7.0 13.0 0.00 0.00 0.00 70 1014.8
20260902053036 58 296 6.1 12.2 0.00 0.00 0.00 69 1014.8
20260902051534 59 288 8.7 16.5 0.00 0.00 0.00 69 1014.6
20260902050034 58 290 7.8 15.6 0.00 0.00 0.00 70 1014.5
20260902044534 59 288 7.8 15.6 0.00 0.00 0.00 70 1014.4
20260902043035 59 296 7.8 16.5 0.00 0.00 0.00 69 1014.2
20260902041536 59 299 7.0 16.5 0.00 0.00 0.00 68 1014.2
20260902040034 59 292 7.8 20.9 0.00 0.00 0.00 69 1013.9
20260902034535 59 293 7.0 14.8 0.00 0.00 0.00 69 1013.7
20260902033143 59 294 9.6 19.1 0.00 0.00 0.00 69 1013.4
20260902031537 59 292 8.7 19.1 0.00 0.00 0.00 68 1013.3
20260902024536 59 296 6.1 14.8 0.00 0.00 0.00 68 1013.7
20260902023035 59 293 5.2 13.0 0.00 0.00 0.00 67 1013.6
20260902021537 60 296 7.8 20.0 0.00 0.00 0.00 67 1013.6
20260902020036 61 301 6.1 13.9 0.00 0.00 0.00 64 1013.4
20260902013037 62 297 8.7 17.4 0.00 0.00 0.00 62 1013.3
20260902011535 63 290 8.7 19.1 0.00 0.00 0.00 61 1013.2
20260902010034 65 296 8.7 19.1 0.00 0.00 0.00 60 1013.0
20260902004535 65 285 7.0 14.8 0.00 0.00 0.00 61 1012.9
20260902003030 65 293 7.0 15.6 0.00 0.00 0.00 61 1012.7
20260902001552 65 293 6.1 17.4 0.00 0.00 0.00 62 1012.7
20260902000111 65 296 7.0 13.0 0.00 0.00 0.00 63 1012.7
20260901233033 65 332 6.1 14.8 0.00 0.00 0.00 62 1012.7
20260901231532 68 338 7.0 13.9 0.00 0.00 0.00 59 1012.5
20260901224649 70 322 7.8 16.5 0.00 0.00 0.00 56 1012.3
20260901223111 70 312 7.8 17.4 0.00 0.00 0.00 56 1012.2
20260901221535 72 308 7.8 16.5 0.00 0.00 0.00 55 1012.1
20260901220035 72 311 7.0 13.9 0.00 0.00 0.00 57 1011.8
20260901214536 70 348 7.0 14.8 0.00 0.00 0.00 57 1011.8
20260901213035 70 346 7.0 13.0 0.00 0.00 0.00 57 1012.0
20260901211608 70 336 6.1 13.9 0.00 0.00 0.00 57 1012.2
20260901210034 70 337 6.1 13.9 0.00 0.00 0.00 58 1012.3
20260901203031 69 332 7.0 15.6 0.00 0.00 0.00 58 1012.5
20260901201534 69 344 7.0 13.0 0.00 0.00 0.00 58 1012.7
20260901200152 69 351 4.3 14.8 0.00 0.00 0.00 59 1012.9
20260901193035 68 337 5.2 12.2 0.00 0.00 0.00 59 1013.3
20260901184535 67 24 3.5 11.3 0.00 0.00 0.00 60 1013.7
20260901183034 67 25 3.5 10.4 0.00 0.00 0.00 62 1013.8
20260901180034 65 26 4.3 11.3 0.00 0.00 0.00 64 1014.0
20260901174531 64 359 3.5 7.0 0.00 0.00 0.00 68 1014.0
20260901173034 62 30 1.7 7.0 0.00 0.00 0.00 71 1014.0
20260901171533 62 343 2.6 6.1 0.00 0.00 0.00 71 1014.1
20260901170033 60 350 1.7 5.2 0.00 0.00 0.00 74 1014.0
20260901164532 59 16 0.9 3.5 0.00 0.00 0.00 77 1014.0
20260901163033 58 350 1.7 5.2 0.00 0.00 0.00 81 1014.0
20260901161531 55 47 0.0 2.6 0.00 0.00 0.00 85 1013.9
20260901160031 54 67 0.0 1.7 0.00 0.00 0.00 87 1013.8
20260901154535 52 111 0.0 2.6 0.00 0.00 0.00 87 1013.8
20260901153036 51 111 0.9 3.5 0.00 0.00 0.00 87 1013.8
20260901151610 48 125 3.5 7.0 0.00 0.00 0.00 86 1013.6
20260901143035 48 139 2.6 4.3 0.00 0.00 0.00 86 1013.5
20260901140032 48 152 3.5 5.2 0.00 0.00 0.00 84 1013.3
20260901134530 49 150 3.5 5.2 0.00 0.00 0.00 82 1013.1
20260901131533 47 158 4.3 7.0 0.00 0.00 0.00 84 1012.9
20260901130031 46 155 3.5 5.2 0.00 0.00 0.00 85 1012.9
20260901124535 47 156 3.5 5.2 0.00 0.00 0.00 85 1012.8
20260901123033 47 149 3.5 6.1 0.00 0.00 0.00 83 1012.8
20260901121643 47 154 3.5 5.2 0.00 0.00 0.00 82 1012.8
20260901120029 48 161 3.5 5.2 0.00 0.00 0.00 80 1012.7
20260901114650 49 159 2.6 4.3 0.00 0.00 0.00 80 1012.8
20260901113034 49 152 2.6 5.2 0.00 0.00 0.00 79 1012.8
20260901111531 49 156 2.6 5.2 0.00 0.00 0.00 78 1012.7
20260901110035 49 156 2.6 5.2 0.00 0.00 0.00 77 1012.8
20260901104531 50 157 4.3 6.1 0.00 0.00 0.00 76 1012.8
20260901103035 50 161 3.5 6.1 0.00 0.00 0.00 76 1012.9
20260901101531 50 147 2.6 4.3 0.00 0.00 0.00 76 1012.9
20260901100032 50 151 2.6 6.1 0.00 0.00 0.00 75 1012.9
20260901094609 50 164 3.5 5.2 0.00 0.00 0.00 76 1012.8
20260901093111 50 150 2.6 4.3 0.00 0.00 0.00 75 1012.8